Regional Weather Roundup
Issued by NWS

Home | Current Version | Previous Version | Graphics & Text | Print | Product List | Glossary On
Versions: 1 2 3 4 5 6 7 8 9 10 11 12 13 14 15 16 17 18 19 20 21 22 23 24 25 26 27 28 29 30 31 32 33 34 35 36 37 38 39 40 41 42 43 44 45 46 47 48 49 50
083
ASUS45 KSLC 300610
RWRUT

UTAH REGIONAL WEATHER ROUNDUP
NATIONAL WEATHER SERVICE SALT LAKE CITY UT
1200 AM MDT SUN APR 30 2017

UTZ001>011-023>025-300700-

NORTHERN UTAH

CITY           SKY/WX    TMP DP  RH WIND       PRES   REMARKS
BRIGHAM CITY   CLEAR     45  32  60 CALM      30.21F
HILL AFB       PTCLDY    42  25  50 E12       30.21S
LOGAN          PTCLDY    42  33  70 SE3       30.20F
OGDEN          PTCLDY    42  27  55 S9        30.20F
SALT LAKE CITY PTCLDY    46  30  53 SE3       30.21S
TOOELE VALLEY  PTCLDY    36  32  87 S7        30.21F WCI  30
WENDOVER       CLEAR     48  31  51 E3        30.21F
WEST JORDAN    PTCLDY    43  35  74 W6        30.22S

$$

UTZ011>015-024>027-300700-

CENTRAL/NORTHEAST UTAH

CITY           SKY/WX    TMP DP  RH WIND       PRES   REMARKS
PROVO AIRPORT  PTCLDY    37  29  72 E3        30.23S
MOAB/CANYONLAN CLOUDY    48  15  26 NE17      30.14R
DELTA          PTCLDY    41  23  48 NW3       30.23R
PRICE          CLEAR     35  17  47 N10       30.20S WCI  27
RICHFIELD      CLEAR     36  23  60 CALM      30.25F
ROOSEVELT      CLEAR     36  21  55 W5        30.22F WCI  32
VERNAL         CLEAR     37  18  46 E10       30.20F WCI  30

$$

UTZ013>016-019>022-027-300700-

SOUTHERN UTAH

CITY           SKY/WX    TMP DP  RH WIND       PRES   REMARKS
BRYCE CANYON   CLEAR     32  14  47 NW9       30.22S WCI  24
CEDAR CITY     CLEAR     32  19  58 E3        30.20F
MILFORD        CLEAR     41  19  41 N12       30.21F
ST GEORGE      CLEAR     59  19  21 VRB3      30.15R
HANKSVILLE     PTCLDY    45  18  33 NE9       30.19R
KANAB          CLEAR     46  18  31 NE8       30.22R
BLANDING       CLEAR     37  15  41 CALM      30.18S

$$

REGIONAL REPORTS     COLORADO/ARIZONA

CITY           SKY/WX    TMP DP  RH WIND       PRES   REMARKS
CRAIG, CO      CLEAR     29  20  69 CALM      30.19S
GRAND JUNCTION CLEAR     39  19  44 NW7       30.16R WCI  34
RIFLE, CO      MOCLDY    39  21  48 NW13      30.16S WCI  31
MONTROSE, CO   CLOUDY    39  23  52 NW18G24   30.14R WCI  30
CORTEZ, CO     CLEAR     37  21  52 N7        30.10R WCI  32
COLORADO CITY    N/A     46  19  34 N7        30.21S
PAGE, AZ       CLEAR     54  18  24 W6        30.13R
GRAND CANYON   CLEAR     29  12  49 CALM      30.20R
KINGMAN, AZ    CLEAR     42  16  34 CALM      30.12R
FLAGSTAFF, AZ  CLEAR     29  10  45 CALM      30.18R

$$

REGIONAL REPORTS    NEVADA/IDAHO/WYOMING

CITY           SKY/WX    TMP DP  RH WIND       PRES   REMARKS
LAS VEGAS, NV  CLEAR     68  12  11 N7        30.09R
ELY, NY        CLEAR     36  18  48 NW6       30.24F WCI  31
ELKO, NV       PTCLDY    42  29  59 CALM      30.22F
POCATELLO, ID  CLEAR     38  26  62 S9        30.18F WCI  31
BURLEY, ID     PTCLDY    42  26  53 SW9       30.16F
FORT BRIDGER,    N/A     34  21  60 W12       30.24F WCI  25
EVANSTON, WY   CLEAR     30  21  69 SW6       30.23F WCI  24
ROCK SPRINGS,  CLEAR     30  19  63 SE7       30.21F WCI  23
KEMMERER, WY     N/A     30  23  74 NW5       30.21F WCI  25

$$




USA.gov is the U.S. government's official web portal to all federal, state and local government web resources and services.